Weather History for FAUP - January, 2013

Change the Weather History Date:

Sunday, January 6, 2013

  Actual Average Record
Temperature  
Mean Temperature 82 °F -  
Max Temperature 100 °F 93 °F 107 °F (2005)
Min Temperature 64 °F 66 °F 59 °F (2014)
Cooling Degree Days 17    
Growing Degree Days 32 (Base 50)    
Moisture  
Dew Point 32 °F    
Average Humidity 16    
Maximum Humidity 30    
Minimum Humidity 4    
Precipitation  
Precipitation 0.00 in 0.03 in - ()
Sea Level Pressure  
Sea Level Pressure 29.93 in    
Wind  
Wind Speed 5 mph ()    
Max Wind Speed 12 mph    
Max Gust Speed -    
Visibility 6.2 miles    
Events      
Averages and records for this station are not official NWS values.
T = Trace of Precipitation, MM = Missing Value Source: Averaged Metar Reports

Daily Weather History Graph

Daily Weather History Graph

Search for Another Location

Airport or City:

Trip Planner

Search our weather history database for the weather conditions in past years. The results will help you decide how hot, cold, wet, or windy it might be!

Date:

Astronomy

Jan. 06, 2013 Rise Set
Actual Time 5:44 AM SAST 7:36 PM SAST
Civil Twilight 5:18 AM SAST 8:03 PM SAST
Nautical Twilight 4:46 AM SAST 8:35 PM SAST
Astronomical Twilight 4:12 AM SAST 9:09 PM SAST
Moon 12:37 AM SAST (1/6) 2:04 PM SAST (1/6)
Length of Visible Light 14h 45m
Length of Day
13h 51m
Last Quarter, 36% of the Moon is Illuminated
Jan 6
Last Quarter
Jan 11
New
Jan 19
First Quarter
Jan 27
Full
Feb 3
Last Quarter

Hourly Weather History & Observations

Time (SAST) Temp. Dew Point Humidity Pressure Visibility Wind Dir Wind Speed Gust Speed Precip Events Conditions
12:00 AM 71.6 °F 32.0 °F 23% 29.86 in - North 2.3 mph - N/A   Unknown
1:00 AM 69.8 °F 32.0 °F 25% 29.86 in - WNW 4.6 mph - N/A   Clear
2:00 AM 75 °F 34 °F 13%  in 25 mi WSW 11.5 mph - -  
2:00 AM 73.4 °F 33.8 °F 23% 29.89 in - WSW 10.4 mph - N/A   Clear
3:00 AM 71.6 °F 32.0 °F 23% 29.89 in - SW 8.1 mph - N/A   Clear
4:00 AM 69.8 °F 33.8 °F 27% 29.89 in - SW 5.8 mph - N/A   Clear
5:00 AM 66 °F 33 °F 18%  in 25 mi WSW 5.8 mph - -  
5:00 AM 64.4 °F 32.0 °F 30% 29.89 in - WSW 4.6 mph - N/A   Clear
6:00 AM 64.4 °F 32.0 °F 30% 29.92 in - WSW 3.5 mph - N/A   Clear
6:37 AM 68.0 °F 32.0 °F 26% 29.95 in - NNW 1.2 mph - N/A   Clear
7:00 AM 71.6 °F 32.0 °F 23% 29.95 in - North 3.5 mph - N/A   Unknown
7:22 AM 73.4 °F 32.0 °F 22% 29.98 in - West 3.5 mph - N/A   Clear
7:47 AM 77.0 °F 32.0 °F 19% 29.95 in - West 3.5 mph - N/A   Clear
8:00 AM 76 °F 30 °F 10%  in 25 mi WSW 4.6 mph - -  
8:00 AM 75.2 °F 32.0 °F 21% 29.95 in - WSW 4.6 mph - N/A   Clear
9:00 AM 78.8 °F 32.0 °F 18% 29.98 in - SSW 5.8 mph - N/A   Clear
9:32 AM 82.4 °F 33.8 °F 17% 29.95 in - South 8.1 mph - N/A   Clear
10:00 AM 82.4 °F 32.0 °F 16% 29.95 in - SSW 5.8 mph - N/A   Clear
10:29 AM 86.0 °F 32.0 °F 14% 29.95 in - SSW 5.8 mph - N/A   Clear
11:00 AM 88 °F 33 °F 7%  in 25 mi SSE 4.6 mph - -  
11:00 AM 87.8 °F 32.0 °F 14% 29.95 in - SSE 3.5 mph - N/A   Clear
12:00 PM 91.4 °F 33.8 °F 13% 29.95 in - SW 4.6 mph - N/A   Clear
1:00 PM 91.4 °F 30.2 °F 11% 29.95 in - West 3.5 mph - N/A   Clear
1:23 PM 96.8 °F 32.0 °F 10% 29.92 in - West 5.8 mph - N/A   Clear
2:00 PM 96 °F 32 °F 5%  in 25 mi WSW 5.8 mph - -  
2:00 PM 95.0 °F 32.0 °F 11% 29.92 in - WSW 4.6 mph - N/A   Clear
3:00 PM 96.8 °F 32.0 °F 10% 29.89 in 6.2 mi SSW 6.9 mph - N/A   Partly Cloudy
4:00 PM 96.8 °F 30.2 °F 10% 29.89 in 6.2 mi WSW 6.9 mph - N/A   Partly Cloudy
5:00 PM 100 °F 32 °F 4%  in 25 mi WSW 11.5 mph - -   Scattered Clouds
5:00 PM 98.6 °F 32.0 °F 10% 29.89 in 6.2 mi WSW 11.5 mph - N/A   Partly Cloudy
6:00 PM 96.8 °F 32.0 °F 10% 29.89 in 6.2 mi SW 10.4 mph - N/A   Partly Cloudy
7:00 PM 95.0 °F 30.2 °F 10% 29.89 in 6.2 mi SW 8.1 mph - N/A   Partly Cloudy
8:00 PM 87.8 °F 28.4 °F 12% 29.92 in - WSW 5.8 mph - N/A   Clear
9:00 PM 84.2 °F 30.2 °F 14% 29.95 in - WSW 3.5 mph - N/A   Unknown
10:00 PM 78.8 °F 30.2 °F 17% 29.95 in - West 5.8 mph - N/A   Unknown
11:00 PM 79 °F 29 °F 8%  in - WSW 8.1 mph - -  
11:00 PM 78.8 °F 30.2 °F 17% 29.98 in - WSW 6.9 mph - N/A   Unknown